Weather History for Buffalo, WY

Change the Weather History Date:

Thursday, November 1, 2012

  Actual Average Record
Temperature  
Mean Temperature 55 °F 41 °F  
Max Temperature 64 °F 52 °F 73 °F (2014)
Min Temperature 48 °F 29 °F 4 °F (2002)
Degree Days  
Heating Degree Days 10 24  
Month to date heating degree days 24  
Since 1 July heating degree days 930  
Cooling Degree Days 0 0  
Month to date cooling degree days 0  
Year to date cooling degree days 492  
Growing Degree Days 5 (Base 50)    
Moisture  
Dew Point 27 °F    
Average Humidity 35    
Maximum Humidity 48    
Minimum Humidity 24    
Precipitation  
Precipitation 0.00 in 0.01 in 0.13 in (2011)
Month to date precipitation 0.01  
Year to date precipitation 12.52  
Sea Level Pressure  
Sea Level Pressure 29.77 in    
Wind  
Wind Speed 6 mph (WSW)    
Max Wind Speed 12 mph    
Max Gust Speed -    
Visibility 10 miles    
Events      
T = Trace of Precipitation, MM = Missing Value Source: NWS Daily Summary

Daily Weather History Graph

Daily Weather History Graph

Search for Another Location

Airport:

Trip Planner

Search our weather history database for the weather conditions in past years. The results will help you decide how hot, cold, wet, or windy it might be!

Date:

Astronomy

Nov. 01, 2012 Rise Set
Actual Time 7:44 AM MDT 5:55 PM MDT
Civil Twilight 7:14 AM MDT 6:25 PM MDT
Nautical Twilight 6:40 AM MDT 7:00 PM MDT
Astronomical Twilight 6:06 AM MDT 7:33 PM MDT
Moon 7:49 PM MDT (11/1) 10:24 AM MDT (11/1)
Length of Visible Light 11h 11m
Length of Day
10h 10m
Waning Gibbous, 92% of the Moon is Illuminated
Nov 1
Waning Gibbous
Nov 6
Last Quarter
Nov 13
New
Nov 20
First Quarter
Nov 28
Full

Hourly Weather History & Observations

Time (MDT) Temp. Dew Point Humidity Pressure Visibility Wind Dir Wind Speed Gust Speed Precip Events Conditions
12:53 AM 52.0 °F 25.0 °F 35% 29.88 in 10.0 mi South 4.6 mph - N/A   Clear
1:53 AM 53.1 °F 25.0 °F 34% 29.85 in 10.0 mi SSW 6.9 mph - N/A   Clear
2:53 AM 50.0 °F 27.0 °F 41% 29.82 in 10.0 mi South 8.1 mph - N/A   Clear
3:53 AM 57.9 °F 25.0 °F 28% 29.78 in 10.0 mi SW 11.5 mph - N/A   Clear
5:53 AM 60.1 °F 23.0 °F 24% 29.77 in 10.0 mi Variable 4.6 mph - N/A   Clear
6:53 AM 57.9 °F 24.1 °F 27% 29.79 in 10.0 mi SSE 6.9 mph - N/A   Clear
7:53 AM 55.9 °F 25.0 °F 30% 29.79 in 10.0 mi Calm Calm - N/A   Clear
8:53 AM 51.1 °F 28.0 °F 41% 29.80 in 10.0 mi WSW 8.1 mph - N/A   Clear
9:53 AM 55.9 °F 26.1 °F 32% 29.78 in 10.0 mi WNW 3.5 mph - N/A   Clear
10:53 AM 57.9 °F 27.0 °F 31% 29.78 in 10.0 mi WSW 9.2 mph - N/A   Clear
11:53 AM 62.1 °F 25.0 °F 24% 29.74 in 10.0 mi Variable 4.6 mph - N/A   Clear
12:53 PM 57.9 °F 27.0 °F 31% 29.74 in 10.0 mi SSE 6.9 mph - N/A   Clear
1:53 PM 59.0 °F 28.9 °F 32% 29.72 in 10.0 mi South 3.5 mph - N/A   Clear
2:53 PM 59.0 °F 28.9 °F 32% 29.70 in 10.0 mi Calm Calm - N/A   Clear
3:53 PM 61.0 °F 24.1 °F 24% 29.67 in 10.0 mi Calm Calm - N/A   Clear
4:53 PM 57.9 °F 27.0 °F 31% 29.69 in 10.0 mi NW 8.1 mph - N/A   Clear
5:53 PM 55.0 °F 27.0 °F 34% 29.72 in 10.0 mi NNE 6.9 mph - N/A   Clear
6:53 PM 52.0 °F 28.9 °F 41% 29.78 in 10.0 mi Calm Calm - N/A   Overcast
7:53 PM 50.0 °F 30.9 °F 48% 29.79 in 10.0 mi WSW 8.1 mph - N/A   Overcast
8:53 PM 48.9 °F 30.0 °F 48% 29.79 in 10.0 mi WNW 6.9 mph - N/A   Scattered Clouds
9:53 PM 50.0 °F 30.0 °F 46% 29.79 in 10.0 mi NW 10.4 mph - N/A   Overcast
10:53 PM 51.1 °F 28.9 °F 43% 29.78 in 10.0 mi NNW 5.8 mph - N/A   Overcast
11:53 PM 48.0 °F 28.9 °F 48% 29.78 in 10.0 mi NNE 3.5 mph - N/A   Scattered Clouds